Location: Lancaster
(34.6980°N, 118.1360°W)
Time: 20:31:29
(UTC-08:00)

OTV 5 (USA 277) - Pass Details

Date: 16 November 2017
Orbit: 404 x 417 km, 43.0° (Epoch: 07 September)

Event Time Altitude Azimuth Distance (km) Brightness Sun altitude
Exits shadow 05:14:28 18° 339° (NNW) 1,067 ? -15.2°
Maximum altitude 05:15:40 22° 11° (N) 941 ? -14.9°
Drops below altitude 10° 05:18:18 10° 64° (ENE) 1,454 ? -14.4°
Sets 05:20:42 0° 80° (E) 2,312 ? -13.9°
